FW0887 Weather Reports


Display with metric or nautical units.
time (UTC)temp
F
wind
direction
speed
MPH
gust
MPH
rain 1hr
in
rain 24hr
in
rain mn
in
humidity
%
barometer
mb
20260508003024 48 19 0.0 0.0 0.00 0.03 0.00 88 1017.2
20260508001522 48 19 0.0 0.0 0.00 0.03 0.00 87 1017.2
20260508000022 48 19 0.0 0.0 0.00 0.03 0.00 87 1017.2
20260507234522 48 19 0.0 0.0 0.00 0.03 0.00 87 1017.3
20260507233023 48 19 0.0 2.0 0.00 0.03 0.00 87 1017.5
20260507231531 48 19 0.0 1.0 0.00 0.03 0.00 87 1017.5
20260507230018 48 19 0.0 0.0 0.00 0.03 0.00 87 1017.5
20260507224520 48 19 0.0 1.0 0.00 0.03 0.00 88 1017.4
20260507223015 48 19 0.0 1.0 0.00 0.03 0.00 87 1017.3
20260507221516 48 19 0.0 3.0 0.00 0.03 0.00 88 1017.3
20260507220012 48 54 0.0 3.0 0.00 0.03 0.00 88 1017.3
20260507214511 49 55 0.0 2.0 0.00 0.05 0.03 88 1017.2
20260507213010 49 317 0.0 2.0 0.00 0.05 0.03 88 1017.0
20260507211511 49 351 0.0 4.0 0.00 0.05 0.03 88 1016.9
20260507210009 49 229 0.0 0.0 0.00 0.05 0.03 87 1017.0
20260507204507 49 228 0.0 0.0 0.00 0.10 0.03 87 1016.9
20260507203005 49 229 0.0 0.0 0.00 0.10 0.03 87 1016.7
20260507201505 49 229 0.0 0.0 0.00 0.10 0.03 87 1016.7
20260507200005 49 228 0.0 0.0 0.00 0.10 0.03 86 1016.7
20260507194502 49 229 0.0 1.0 0.00 0.28 0.03 86 1016.5
20260507193001 49 229 0.0 2.0 0.00 0.28 0.03 86 1016.3
20260507191600 49 229 0.0 3.0 0.00 0.28 0.03 85 1016.2
20260507190059 50 229 0.0 2.0 0.00 0.28 0.03 85 1016.0
20260507184558 50 261 0.0 1.0 0.00 0.28 0.03 84 1015.8
20260507183104 50 261 1.0 3.0 0.00 0.28 0.03 84 1015.7
20260507181555 51 265 0.0 3.0 0.00 0.28 0.03 84 1015.6
20260507180055 51 261 0.0 3.0 0.00 0.28 0.03 84 1015.4
20260507174605 51 273 0.0 3.0 0.00 0.42 0.03 84 1015.4
20260507173059 51 263 0.0 3.0 0.00 0.42 0.03 84 1015.2
20260507171608 51 283 1.0 3.0 0.00 0.42 0.03 84 1015.2
20260507170055 51 294 1.0 4.0 0.00 0.42 0.03 84 1015.0
20260507164602 52 270 0.0 4.0 0.00 0.42 0.03 85 1014.9
20260507163048 52 237 1.0 4.0 0.00 0.42 0.03 85 1014.8
20260507161550 52 240 1.0 4.0 0.00 0.42 0.03 87 1014.8
20260507160048 51 274 1.0 4.0 0.00 0.42 0.03 88 1014.8
20260507154546 50 250 1.0 4.0 0.00 0.42 0.03 86 1014.9
20260507153049 51 244 0.0 4.0 0.00 0.42 0.03 85 1014.9
20260507151545 51 301 1.0 4.0 0.00 0.42 0.03 85 1014.8
20260507150043 51 253 2.0 8.0 0.00 0.42 0.03 85 1014.7
20260507144541 51 247 1.0 5.0 0.00 0.42 0.03 85 1014.7
20260507143045 51 261 2.0 6.0 0.01 0.42 0.03 86 1014.5
20260507141545 51 277 3.0 9.0 0.01 0.42 0.03 86 1014.5
20260507140040 51 261 2.0 6.0 0.01 0.42 0.03 86 1014.4
20260507134547 50 290 2.0 6.0 0.01 0.42 0.03 85 1014.3
20260507133036 51 296 2.0 10.0 0.00 0.41 0.02 84 1014.3
20260507131539 52 248 2.0 4.0 0.00 0.41 0.02 86 1014.1
20260507130034 51 235 1.0 4.0 0.00 0.41 0.02 87 1014.0
20260507124533 51 273 1.0 3.0 0.00 0.41 0.02 86 1014.0
20260507123035 51 264 1.0 5.0 0.00 0.41 0.02 85 1013.9
20260507121530 52 277 2.0 8.0 0.00 0.41 0.02 86 1013.7
20260507120029 51 246 4.0 10.0 0.00 0.41 0.02 86 1013.4
20260507114531 51 235 2.0 9.0 0.00 0.41 0.02 86 1013.4
20260507113025 52 240 4.0 10.0 0.02 0.41 0.02 84 1013.0
20260507111524 53 227 3.0 8.0 0.02 0.41 0.02 87 1012.8
20260507110024 52 223 2.0 5.0 0.02 0.41 0.02 86 1012.8
20260507104525 51 232 3.0 6.0 0.02 0.41 0.02 85 1012.7
20260507103024 53 301 3.0 10.0 0.00 0.39 0.01 83 1012.7
20260507101521 54 236 4.0 9.0 0.00 0.39 0.01 85 1012.3
20260507100017 54 216 4.0 7.0 0.00 0.39 0.01 87 1012.3
20260507094626 52 215 4.0 9.0 0.00 0.39 0.01 87 1012.2
20260507093014 52 230 5.0 14.0 0.00 0.39 0.01 84 1012.2
20260507091513 54 211 5.0 10.0 0.00 0.39 0.01 82 1012.0
20260507090010 53 239 4.0 9.0 0.00 0.39 0.01 84 1011.9
20260507084506 52 208 3.0 11.0 0.00 0.39 0.01 86 1011.8
20260507083007 52 205 3.0 9.0 0.00 0.39 0.01 88 1011.7
20260507081512 51 226 3.0 7.0 0.00 0.39 0.01 88 1011.7
20260507080005 51 227 4.0 10.0 0.00 0.39 0.01 88 1011.7
20260507074515 50 217 5.0 10.0 0.00 0.39 0.01 86 1011.5
20260507073002 51 232 5.0 11.0 0.00 0.39 0.01 86 1011.3
20260507071501 51 242 6.0 10.0 0.00 0.39 0.01 85 1011.2
20260507070108 51 205 5.0 9.0 0.00 0.39 0.01 86 1011.0
20260507064600 51 229 4.0 9.0 0.00 0.39 0.01 87 1011.1
20260507063059 50 228 3.0 7.0 0.00 0.39 0.01 89 1010.9
20260507061557 50 222 5.0 8.0 0.00 0.39 0.01 89 1010.8
20260507060105 49 236 4.0 10.0 0.00 0.39 0.01 89 1010.7
20260507054556 49 236 3.0 7.0 0.00 0.39 0.01 90 1010.6
20260507053053 50 210 2.0 5.0 0.00 0.39 0.01 90 1010.4
20260507051548 49 248 1.0 7.0 0.00 0.39 0.01 90 1010.3
20260507050045 49 238 3.0 8.0 0.00 0.39 0.01 90 1010.2
20260507044544 49 269 2.0 9.0 0.00 0.39 0.01 90 1009.9
20260507043040 50 235 3.0 7.0 0.00 0.39 0.01 91 1009.8
20260507041538 50 196 3.0 6.0 0.00 0.39 0.01 91 1009.5
20260507040038 50 230 2.0 5.0 0.00 0.39 0.01 91 1009.3
20260507034551 50 240 3.0 8.0 0.00 0.39 0.01 91 1009.3
20260507033038 50 194 3.0 7.0 0.00 0.39 0.01 91 1009.2
20260507032159 51 203 3.0 7.0 0.00 0.39 0.01 91 1009.8
20260507031530 50 208 3.0 6.0 0.00 0.39 0.01 91 1009.1
20260507030029 51 199 3.0 6.0 0.00 0.39 0.01 91 1009.0
20260507024546 51 219 1.0 4.0 0.00 0.39 0.01 91 1008.8
20260507023027 51 210 2.0 5.0 0.00 0.39 0.01 91 1008.9
20260507022142 51 203 2.0 4.0 0.00 0.39 0.01 91 1009.7
20260507021525 51 222 2.0 7.0 0.00 0.39 0.01 91 1008.8
20260507020026 51 217 1.0 6.0 0.01 0.39 0.01 91 1008.8
20260507014535 51 239 1.0 4.0 0.01 0.39 0.01 91 1008.7
20260507013024 51 227 1.0 4.0 0.01 0.39 0.01 91 1008.6
20260507012125 52 225 1.0 2.0 0.01 0.39 0.01 91 1009.5
20260507011536 51 218 0.0 2.0 0.01 0.39 0.01 91 1008.7
20260507010021 51 218 0.0 5.0 0.00 0.39 0.00 91 1008.6
20260507004520 51 229 1.0 4.0 0.00 0.39 0.00 91 1008.5